Date,TemperatureHighF,TemperatureAvgF,TemperatureLowF,DewpointHighF,DewpointAvgF,DewpointLowF,HumidityHigh,HumidityAvg,HumidityLow,PressureMaxIn,PressureMinIn,WindSpeedMaxMPH,WindSpeedAvgMPH,GustSpeedMaxMPH,PrecipitationSumIn
2013-2-1,37.9,30.1,21.9,29.1,13.9,6.8,75,52,37,30.41,29.81,10,4,21,0.00
2013-2-2,36.4,27.3,16.3,23.9,14.2,7.6,77,58,43,30.41,30.02,6,1,12,0.00
2013-2-3,42.7,36.6,31.3,33.0,25.0,20.2,87,63,51,30.02,29.84,5,2,12,0.00
2013-2-4,40.4,33.6,24.3,27.3,21.2,17.3,77,61,49,30.14,29.96,4,1,8,0.00
2013-2-5,56.1,46.7,39.3,40.7,34.0,27.4,67,61,54,29.96,29.85,6,2,10,0.00
2013-2-6,56.2,46.3,36.9,36.3,32.9,28.6,80,61,41,30.32,29.94,5,1,9,0.00
2013-2-7,43.7,38.0,32.5,36.4,31.1,26.8,94,76,63,30.41,30.13,5,2,10,0.15
2013-2-8,51.5,40.8,34.8,43.5,35.8,27.6,96,84,57,30.13,29.78,8,3,11,0.66
2013-2-9,47.9,38.5,28.4,27.6,21.8,17.0,77,52,33,30.39,29.98,5,1,10,0.00
2013-2-10,46.8,37.1,24.9,33.3,22.2,16.8,79,56,40,30.51,30.25,4,1,12,0.01
2013-2-11,57.1,50.3,39.1,55.2,47.8,33.7,96,91,79,30.24,29.85,10,4,16,0.06
2013-2-12,56.9,50.7,42.9,48.1,32.9,28.8,79,51,39,30.03,29.87,6,2,15,0.00
2013-2-13,49.6,43.1,35.6,40.8,38.2,32.2,95,84,53,29.93,29.63,4,0,11,0.10
2013-2-14,50.8,42.3,32.2,36.4,33.9,30.7,95,73,54,30.06,29.81,4,1,7,0.00
2013-2-15,59.5,47.1,34.1,40.8,34.6,30.8,88,65,38,30.08,29.91,6,2,12,0.00
2013-2-16,43.7,34.6,27.7,38.3,32.2,25.4,94,91,81,30.00,29.85,3,0,11,0.14
2013-2-17,30.3,25.9,20.2,25.3,14.7,8.9,91,64,41,30.27,29.89,8,2,14,0.00
2013-2-18,48.3,33.8,17.6,25.9,18.2,10.1,76,55,35,30.42,30.23,4,1,14,0.00
2013-2-19,46.9,40.3,33.7,44.9,34.8,23.5,94,81,52,30.24,29.81,9,3,16,0.07
2013-2-20,45.8,38.3,32.3,29.3,19.4,16.4,67,47,33,30.16,29.91,7,3,12,0.00
2013-2-21,45.9,35.6,24.9,24.4,20.3,16.6,76,54,40,30.33,30.13,3,1,11,0.00
2013-2-22,39.7,35.3,31.2,32.5,24.9,19.7,90,66,57,30.38,30.20,4,1,7,0.01
2013-2-23,42.5,37.2,34.3,41.2,35.8,32.0,96,94,90,30.19,29.83,2,0,7,0.14
2013-2-24,57.9,44.4,34.9,44.6,35.7,25.8,96,75,41,30.10,29.81,6,1,12,0.00
2013-2-25,40.9,34.3,28.5,26.0,24.0,20.5,80,66,53,30.25,30.09,4,1,12,0.00
2013-2-26,52.2,39.6,29.1,51.1,36.6,23.6,96,89,78,30.22,29.58,10,3,19,0.51
2013-2-27,55.6,46.3,39.2,43.8,39.6,34.8,96,79,53,29.72,29.58,7,3,15,0.00
2013-2-28,47.0,41.4,34.6,38.7,31.7,27.7,90,69,51,29.81,29.66,7,3,12,0.01